[[{"header":{"parameterUnit":"m.s-1","parameterCategory":1,"la1":30.2991,"la2":30.254,"lo1":-89.0895,"lo2":-89.0444,"dy":0.0017,"dx":0.0017,"nx":28,"ny":28,"refTime":"2023-11-02T21:00:00:Z","depth":0,"parameterNumber":2,"parameterNumberName":"U-component_of_WINDS"},"data":[0,0,0,0,0,0,0,0,0,0,0,0,0,0,0,0,0,0,0,0,0,0,0,0,0,0,0,0,0,0,0,0,0,0,0,0,0,0,0,0,0,0,0,0,0,0,0,0,0,0,0,0,0,0,0,0,0,0,-2.6149,-2.615,0,-2.6223,-2.6224,-2.6225,-2.6132,-2.6128,-2.6125,-2.6122,-2.62,-2.6205,-2.621,0,0,0,0,0,0,0,0,0,0,0,0,0,-2.5929,-2.5933,-2.6149,-2.615,-2.6151,-2.6223,-2.6224,-2.6225,-2.6132,-2.6128,-2.6124,-2.612,-2.6198,-2.6204,-2.6211,0,0,0,0,0,0,0,0,0,0,0,0,0,-2.6016,-2.5935,-2.6149,-2.6113,-2.6111,-2.6223,-2.6224,-2.6225,-2.6133,-2.6128,-2.6123,-2.6118,-2.6196,-2.6204,-2.6211,-2.6363,0,0,-2.6236,-2.6239,0,0,0,0,0,0,0,0,-2.6011,-2.6024,-2.6117,-2.6116,-2.6113,-2.6163,-2.6175,-2.6271,-2.6134,-2.6125,-2.6121,-2.6116,-2.6192,-2.62,-2.6225,-2.6366,-2.637,-2.6236,-2.6241,-2.6244,-2.6247,0,0,0,0,0,0,0,-2.6005,-2.602,-2.6178,-2.6119,-2.6116,-2.6094,-2.6101,-2.6193,-2.6186,-2.6125,-2.6119,-2.6128,-2.619,-2.6218,-2.6226,-2.6371,-2.6236,-2.6243,-2.6248,-2.6251,-2.664,-2.6645,0,0,0,0,0,0,-2.6003,-2.6016,-2.6176,-2.618,-2.6048,-2.6102,-2.611,-2.6152,-2.6185,-2.6185,-2.6133,-2.6124,-2.6207,-2.6217,-2.6228,-2.6408,-2.6244,-2.6252,-2.6256,-2.6634,-2.6641,-2.6647,0,0,0,0,0,0,-2.5999,-2.6018,-2.6173,-2.6096,-2.6114,-2.6111,-2.616,-2.6156,-2.6184,-2.6191,-2.6189,-2.6162,-2.6203,-2.6217,-2.633,-2.6409,-2.6255,-2.6263,-2.6628,-2.6637,-2.6644,-2.6768,0,0,0,0,0,0,-2.5993,-2.6017,-2.6074,-2.6098,-2.6119,-2.6273,-2.6165,-2.6161,-2.6198,-2.6187,-2.6218,-2.6218,-2.62,-2.6319,-2.6338,-2.6417,-2.6269,-2.6621,-2.6632,-2.6642,-2.6757,-2.678,-2.6799,0,0,0,0,0,-2.5985,-2.6107,-2.6078,-2.6097,-2.619,-2.6278,-2.6289,-2.6265,-2.6204,-2.6262,-2.6266,-2.6217,-2.6397,-2.6331,-2.6352,-2.6435,-2.6616,-2.6629,-2.6641,-2.6748,-2.6775,-2.6799,0,0,0,0,0,0,-2.6093,-2.6109,-2.6077,-2.621,-2.6243,-2.6262,-2.6334,-2.6295,-2.6347,-2.6335,-2.6303,-2.6311,-2.6431,-2.6444,-2.637,-2.6583,-2.6496,-2.6514,-2.657,-2.6597,-2.6618,-2.6613,-2.6275,0,0,0,0,0,-2.6132,-2.6201,-2.6212,-2.6328,-2.6346,-2.6337,-2.6375,-2.6353,-2.6386,-2.64,-2.6412,-2.6447,-2.6511,-2.6555,-2.6614,-2.6758,-2.6764,-2.6825,-2.6846,-2.6864,-2.688,-2.6957,-2.6985,-2.6689,-2.6689,-2.6688,0,0,-2.6214,-2.6231,-2.6277,-2.635,-2.6373,-2.6446,-2.635,-2.6431,-2.6485,-2.6413,-2.652,-2.653,-2.6567,-2.6696,-2.6753,-2.671,-2.6962,-2.688,-2.6894,-2.69,-2.6973,-2.7001,-2.7026,-2.6697,-2.6696,-2.6694,0,0,-2.64,-2.642,-2.6519,-2.6544,-2.658,-2.6573,-2.6597,-2.6621,-2.6625,-2.6732,-2.6679,-2.6743,-2.6854,-2.6883,-2.6912,-2.7108,-2.7066,-2.7128,-2.7239,-2.7315,-2.7339,-2.7359,-2.743,-2.7456,-2.7144,-2.7144,-2.7144,0,-2.6498,-2.6605,-2.6575,-2.666,-2.6694,-2.6631,-2.6731,-2.6757,-2.6811,-2.6836,-2.6787,-2.6925,-2.6945,-2.708,-2.7128,-2.7153,-2.718,-2.7125,-2.7337,-2.7358,-2.7376,-2.7444,-2.7471,-2.7152,-2.7151,-2.715,-2.7149,0,-2.6724,-2.6799,-2.6874,-2.6927,-2.697,-2.7062,-2.7047,-2.7093,-2.7068,-2.7066,-2.7176,-2.7198,-2.726,-2.729,-2.7267,-2.7422,-2.7395,-2.7342,-2.7255,-2.7413,-2.7476,-2.7501,-2.7162,-2.716,-2.7157,-2.7156,0,0,-2.6982,-2.7016,-2.7044,-2.7067,-2.7102,-2.716,-2.7249,-2.731,-2.7351,-2.739,-2.7465,-2.756,-2.7511,-2.7544,-2.7523,-2.7589,-2.7745,-2.7528,-2.7529,-2.7569,-2.7918,-2.7959,-2.7989,-2.7716,-2.772,-2.7724,-2.7915,0,-2.7169,-2.7323,-2.7299,-2.7448,-2.7518,-2.7458,-2.7536,-2.7566,-2.7567,-2.7626,-2.7627,-2.7695,-2.7625,-2.7645,-2.7708,-2.7712,-2.7815,-2.7698,-2.7786,-2.779,-2.778,-2.8021,-2.8064,-2.8244,-2.794,-2.7944,-2.7947,0,-2.7408,-2.7456,-2.7612,-2.7635,-2.7663,-2.7734,-2.7788,-2.7845,-2.7877,-2.7873,-2.791,-2.7877,-2.7966,-2.7877,-2.8001,-2.7922,-2.7956,-2.7964,-2.797,-2.7979,-2.7879,-2.8038,-2.83,-2.8328,-2.7985,-2.7982,-2.7979,0,-2.7582,-2.7685,-2.7791,-2.7813,-2.7843,-2.7894,-2.7908,-2.7936,-2.7974,-2.8021,-2.8045,-2.8102,-2.8134,-2.8179,-2.8162,-2.8098,-2.829,-2.8199,-2.829,-2.8291,-2.8334,-2.8332,-2.8608,-2.8355,-2.8355,-2.8354,-2.8353,0,-2.7795,-2.7893,-2.787,-2.7936,-2.8044,-2.8015,-2.8123,-2.8131,-2.8156,-2.8222,-2.8174,-2.8238,-2.8211,-2.8273,-2.826,-2.8365,-2.838,-2.838,-2.8375,-2.8385,-2.8385,-2.8408,-2.8396,-2.8361,-2.836,-2.8358,-2.8357,0,-2.8008,-2.7996,-2.8109,-2.8127,-2.8134,-2.8213,-2.8229,-2.8291,-2.8287,-2.8373,-2.8391,-2.8386,-2.8457,-2.8444,-2.8522,-2.8513,-2.8645,-2.8625,-2.8635,-2.863,-2.8723,-2.8715,-2.9024,-2.9063,-2.8784,-2.8787,-2.8789,0,-2.8145,-2.8219,-2.8245,-2.8286,-2.8304,-2.8371,-2.8409,-2.8383,-2.8425,-2.8467,-2.8524,-2.859,-2.8642,-2.8758,-2.8762,-2.8822,-2.8803,-2.8907,-2.8812,-2.8819,-2.8806,-2.8802,-2.881,-2.8927,-2.893,-2.8933,-2.8935,0,-2.839,-2.838,-2.8437,-2.8492,-2.8538,-2.858,-2.8618,-2.8654,-2.8631,-2.8681,-2.8752,-2.8792,-2.8871,-2.8938,-2.8994,-2.9009,-2.8969,-2.8964,-2.8989,-2.9,-2.9003,-2.9004,-2.8687,-2.8958,-2.8955,-2.8954,-2.8953,-2.8952,-2.857,-2.8633,-2.8661,-2.8726,-2.8751,-2.8787,-2.8846,-2.8849,-2.8908,-2.897,-2.8951,-2.9033,-2.9063,-2.9133,-2.9155,-2.9219,-2.918,-2.9216,-2.9225,-2.9234,-2.9246,-2.8992,-2.9229,-2.9228,-2.9227,-2.9227,-2.9226,0,-2.8813,-2.8828,-2.8887,-2.8941,-2.8992,-2.8948,-2.8987,-2.9033,-2.9105,-2.9136,-2.9188,-2.927,-2.9334,-2.9343,-2.9403,-2.9453,-2.9436,-2.947,-2.9467,-2.9471,-2.9276,-2.925,-2.9483,-2.9483,-2.9482,-2.9482,-2.9482,-2.9482,-2.8946,-2.905,-2.9044,-2.9161,-2.9174,-2.9253,-2.9279,-2.9313,-2.9337,-2.9431,-2.9484,-2.9488,-2.9511,-2.9573,-2.963,-2.9631,-2.9656,-2.9698,-2.9692,-2.951,-2.9485,-2.946,-2.9435,-2.9703,-2.9703,-2.9881,-2.9883,-2.9884]},{"header":{"parameterUnit":"m.s-1","parameterCategory":1,"la1":30.2991,"la2":30.254,"lo1":-89.0895,"lo2":-89.0444,"dy":0.0017,"dx":0.0017,"nx":28,"ny":28,"refTime":"2023-11-02T21:00:00:Z","depth":0,"parameterNumber":3,"parameterNumberName":"V-component_of_WINDS"},"data":[0,0,0,0,0,0,0,0,0,0,0,0,0,0,0,0,0,0,0,0,0,0,0,0,0,0,0,0,0,0,0,0,0,0,0,0,0,0,0,0,0,0,0,0,0,0,0,0,0,0,0,0,0,0,0,0,0,0,-2.9929,-2.9929,0,-2.993,-2.993,-2.993,-2.9892,-2.989,-2.9889,-2.9889,-2.9889,-2.989,-2.9891,0,0,0,0,0,0,0,0,0,0,0,0,0,-2.9891,-2.9892,-2.9929,-2.9929,-2.9929,-2.993,-2.993,-2.993,-2.9892,-2.989,-2.9889,-2.9888,-2.9889,-2.989,-2.9891,0,0,0,0,0,0,0,0,0,0,0,0,0,-2.9901,-2.9892,-2.9929,-2.991,-2.9908,-2.993,-2.993,-2.993,-2.9892,-2.989,-2.9889,-2.9887,-2.9888,-2.989,-2.9891,-2.9931,0,0,-2.9896,-2.9896,0,0,0,0,0,0,0,0,-2.9901,-2.9903,-2.9912,-2.9911,-2.9909,-2.9909,-2.9917,-2.993,-2.9892,-2.9898,-2.9888,-2.9887,-2.9897,-2.9897,-2.9901,-2.9931,-2.9931,-2.9896,-2.9897,-2.9897,-2.9898,0,0,0,0,0,0,0,-2.99,-2.9902,-2.9929,-2.9913,-2.9911,-2.99,-2.99,-2.9919,-2.9906,-2.9897,-2.9895,-2.9895,-2.9896,-2.99,-2.9901,-2.9931,-2.9896,-2.9897,-2.9898,-2.9898,-2.9991,-2.9992,0,0,0,0,0,0,-2.9902,-2.9902,-2.9929,-2.9929,-2.9901,-2.9902,-2.9902,-2.9911,-2.9906,-2.9904,-2.9897,-2.9894,-2.9898,-2.9899,-2.9901,-2.9945,-2.9897,-2.9899,-2.9899,-2.9989,-2.9991,-2.9993,0,0,0,0,0,0,-2.9901,-2.9905,-2.9929,-2.9915,-2.9917,-2.9905,-2.9914,-2.9911,-2.9916,-2.9905,-2.9902,-2.9903,-2.9897,-2.9899,-2.9923,-2.9944,-2.9899,-2.9901,-2.9987,-2.999,-2.9992,-3.0035,0,0,0,0,0,0,-2.99,-2.9905,-2.992,-2.9915,-2.9918,-2.9952,-2.9916,-2.9913,-2.9918,-2.9914,-2.9911,-2.9909,-2.9896,-2.9921,-2.9925,-2.9946,-2.9902,-2.9985,-2.9988,-2.9991,-3.0032,-3.0039,-3.0045,0,0,0,0,0,-2.9899,-2.9933,-2.9921,-2.9925,-2.9937,-2.9954,-2.9955,-2.994,-2.992,-2.9935,-2.9928,-2.9909,-2.9942,-2.9924,-2.9928,-2.9949,-2.9984,-2.9988,-2.9991,-3.0029,-3.0037,-3.0044,0,0,0,0,0,0,-2.9941,-2.9932,-2.9919,-2.9952,-2.9954,-2.9947,-2.9966,-2.995,-2.9957,-2.9952,-2.9933,-2.9932,-2.996,-2.9957,-2.9937,-2.9986,-2.9959,-2.9964,-2.9987,-2.9995,-3.0001,-3.0001,-2.9903,0,0,0,0,0,-2.9954,-2.9968,-2.996,-2.999,-2.9991,-2.9978,-2.9985,-2.9973,-2.9974,-2.9974,-2.9969,-2.997,-2.998,-2.9988,-2.9997,-3.0031,-3.0029,-3.0048,-3.0055,-3.006,-3.0064,-3.0079,-3.0087,-3.0005,-3.0004,-3.0004,0,0,-2.9981,-2.9978,-2.9988,-2.9998,-2.9998,-3.0012,-2.9979,-2.9996,-3.0006,-2.9977,-2.9999,-2.9995,-2.9995,-3.0024,-3.0037,-3.0023,-3.0086,-3.0064,-3.0069,-3.0069,-3.0084,-3.0092,-3.0099,-3.0007,-3.0006,-3.0006,0,0,-3.0037,-3.0037,-3.0061,-3.0062,-3.0061,-3.0052,-3.0058,-3.0053,-3.005,-3.0072,-3.0049,-3.0061,-3.008,-3.008,-3.0082,-3.0137,-3.0119,-3.0141,-3.0174,-3.0189,-3.0196,-3.0202,-3.0219,-3.0226,-3.0144,-3.0145,-3.0145,0,-3.0071,-3.0092,-3.0076,-3.0094,-3.0098,-3.0071,-3.0094,-3.0095,-3.0098,-3.0101,-3.0086,-3.0108,-3.0106,-3.0134,-3.0147,-3.015,-3.0155,-3.014,-3.0196,-3.0202,-3.0207,-3.0223,-3.023,-3.0147,-3.0147,-3.0146,-3.0146,0,-3.0132,-3.0147,-3.0167,-3.0169,-3.0176,-3.0196,-3.0182,-3.019,-3.0177,-3.017,-3.0191,-3.0188,-3.0195,-3.0201,-3.0189,-3.0227,-3.0218,-3.02,-3.0172,-3.0218,-3.0233,-3.0239,-3.0151,-3.015,-3.0149,-3.0148,0,0,-3.0215,-3.0208,-3.0215,-3.0215,-3.0212,-3.0223,-3.0242,-3.0248,-3.0255,-3.0258,-3.0272,-3.0288,-3.027,-3.0273,-3.0261,-3.0275,-3.0316,-3.0255,-3.0255,-3.0265,-3.0355,-3.0367,-3.0375,-3.0304,-3.0306,-3.0307,-3.0354,0,-3.0268,-3.03,-3.0285,-3.0318,-3.033,-3.0304,-3.032,-3.032,-3.0313,-3.0322,-3.0314,-3.0325,-3.0302,-3.0303,-3.0316,-3.0308,-3.0333,-3.0305,-3.0316,-3.0316,-3.0315,-3.0383,-3.0396,-3.0442,-3.036,-3.0361,-3.0362,0,-3.0335,-3.0339,-3.0373,-3.0366,-3.0371,-3.0386,-3.0389,-3.0399,-3.0397,-3.0391,-3.0393,-3.0377,-3.0394,-3.0367,-3.0389,-3.037,-3.0373,-3.037,-3.0371,-3.0371,-3.0341,-3.0382,-3.0456,-3.0462,-3.0371,-3.0371,-3.037,0,-3.0389,-3.0404,-3.0425,-3.0427,-3.042,-3.043,-3.0428,-3.0425,-3.0429,-3.0432,-3.0435,-3.044,-3.0443,-3.0447,-3.0432,-3.0415,-3.0455,-3.0428,-3.0449,-3.045,-3.0458,-3.0457,-3.0531,-3.0463,-3.0463,-3.0463,-3.0463,0,-3.0449,-3.047,-3.0449,-3.0463,-3.0485,-3.0467,-3.049,-3.0485,-3.0482,-3.0493,-3.0471,-3.0482,-3.0463,-3.0471,-3.046,-3.0478,-3.048,-3.0474,-3.0471,-3.0475,-3.0476,-3.0476,-3.0472,-3.0465,-3.0464,-3.0464,-3.0464,0,-3.0513,-3.0501,-3.0522,-3.0513,-3.0511,-3.0528,-3.052,-3.0531,-3.0523,-3.0537,-3.0539,-3.0525,-3.0534,-3.0519,-3.0527,-3.0519,-3.0544,-3.0537,-3.0545,-3.0542,-3.0563,-3.0561,-3.0639,-3.0647,-3.0576,-3.0576,-3.0577,0,-3.0552,-3.0567,-3.056,-3.0565,-3.0564,-3.0573,-3.0577,-3.056,-3.0565,-3.0563,-3.0574,-3.0581,-3.0585,-3.06,-3.059,-3.0595,-3.0586,-3.0613,-3.0587,-3.059,-3.0584,-3.0583,-3.0583,-3.0618,-3.0619,-3.062,-3.062,0,-3.062,-3.0613,-3.0619,-3.0623,-3.0628,-3.0631,-3.0631,-3.0637,-3.0618,-3.0625,-3.0633,-3.0636,-3.0643,-3.0649,-3.0651,-3.0648,-3.0631,-3.0629,-3.0634,-3.0638,-3.0641,-3.0637,-3.0557,-3.0627,-3.0626,-3.0626,-3.0625,-3.0625,-3.0671,-3.0683,-3.0679,-3.0686,-3.0685,-3.0686,-3.0695,-3.0687,-3.0694,-3.0697,-3.0687,-3.0697,-3.0693,-3.0694,-3.0693,-3.07,-3.0688,-3.0695,-3.0697,-3.0699,-3.0701,-3.0641,-3.0701,-3.07,-3.07,-3.07,-3.07,0,-3.0737,-3.0733,-3.074,-3.0741,-3.0746,-3.073,-3.0729,-3.0734,-3.0744,-3.0742,-3.0746,-3.0755,-3.076,-3.0751,-3.0755,-3.0762,-3.0754,-3.0763,-3.0762,-3.0761,-3.0713,-3.0707,-3.077,-3.077,-3.077,-3.077,-3.077,-3.077,-3.0772,-3.079,-3.0782,-3.0798,-3.0794,-3.0803,-3.0804,-3.0804,-3.0802,-3.0813,-3.0817,-3.0811,-3.0805,-3.0808,-3.0812,-3.0809,-3.0811,-3.0823,-3.0817,-3.0772,-3.0765,-3.0758,-3.0753,-3.0824,-3.0824,-3.0864,-3.0864,-3.0865]}]]